Time,TemperatureF,DewpointF,PressureIn,WindDirection,WindDirectionDegrees,WindSpeedMPH,WindSpeedGustMPH,Humidity,HourlyPrecipIn,Conditions,Clouds,dailyrainin,SoftwareType,DateUTC
2013-09-12 00:14:00,67.0,-99.9,-100.00,NW,310,6.0,10.0,-999,-99.99,,,-99.99,,2013-09-12 04:14:00,
2013-09-12 00:24:00,67.0,-99.9,-100.00,NW,310,6.0,10.0,-999,-99.99,,,-99.99,,2013-09-12 04:24:00,
2013-09-12 00:34:00,67.0,-99.9,-100.00,NW,310,6.0,10.0,-999,-99.99,,,-99.99,,2013-09-12 04:34:00,
2013-09-12 00:40:00,65.0,-99.9,-100.00,NW,311,9.0,12.0,-999,-99.99,,,-99.99,,2013-09-12 04:40:00,
2013-09-12 01:13:00,65.0,-99.9,-100.00,NW,311,9.0,12.0,-999,-99.99,,,-99.99,,2013-09-12 05:13:00,
2013-09-12 01:23:00,65.0,-99.9,-100.00,NW,311,9.0,12.0,-999,-99.99,,,-99.99,,2013-09-12 05:23:00,
2013-09-12 01:34:00,65.0,-99.9,-100.00,NW,311,9.0,12.0,-999,-99.99,,,-99.99,,2013-09-12 05:34:00,
2013-09-12 01:40:00,65.0,-99.9,-100.00,NW,314,9.0,14.0,-999,-99.99,,,-99.99,,2013-09-12 05:40:00,
2013-09-12 02:22:00,65.0,-99.9,-100.00,NW,314,9.0,14.0,-999,-99.99,,,-99.99,,2013-09-12 06:22:00,
2013-09-12 02:33:00,65.0,-99.9,-100.00,NW,314,9.0,14.0,-999,-99.99,,,-99.99,,2013-09-12 06:33:00,
2013-09-12 02:40:00,62.0,-99.9,-100.00,NW,322,4.0,8.0,-999,-99.99,,,-99.99,,2013-09-12 06:40:00,
2013-09-12 03:12:00,62.0,-99.9,-100.00,NW,322,4.0,8.0,-999,-99.99,,,-99.99,,2013-09-12 07:12:00,
2013-09-12 03:22:00,62.0,-99.9,-100.00,NW,322,4.0,8.0,-999,-99.99,,,-99.99,,2013-09-12 07:22:00,
2013-09-12 03:32:00,62.0,-99.9,-100.00,NW,322,4.0,8.0,-999,-99.99,,,-99.99,,2013-09-12 07:32:00,
2013-09-12 03:40:00,61.0,-99.9,-100.00,NW,322,3.0,7.0,-999,-99.99,,,-99.99,,2013-09-12 07:40:00,
2013-09-12 04:11:00,61.0,-99.9,-100.00,NW,322,3.0,7.0,-999,-99.99,,,-99.99,,2013-09-12 08:11:00,
2013-09-12 04:22:00,61.0,-99.9,-100.00,NW,322,3.0,7.0,-999,-99.99,,,-99.99,,2013-09-12 08:22:00,
2013-09-12 04:32:00,61.0,-99.9,-100.00,NW,322,3.0,7.0,-999,-99.99,,,-99.99,,2013-09-12 08:32:00,
2013-09-12 04:40:00,60.0,-99.9,-100.00,NW,326,3.0,7.0,-999,-99.99,,,-99.99,,2013-09-12 08:40:00,
2013-09-12 05:12:00,60.0,-99.9,-100.00,NW,326,3.0,7.0,-999,-99.99,,,-99.99,,2013-09-12 09:12:00,
2013-09-12 05:22:00,60.0,-99.9,-100.00,NW,326,3.0,7.0,-999,-99.99,,,-99.99,,2013-09-12 09:22:00,
2013-09-12 05:34:00,60.0,-99.9,-100.00,NW,326,3.0,7.0,-999,-99.99,,,-99.99,,2013-09-12 09:34:00,
2013-09-12 05:40:00,59.0,-99.9,-100.00,NW,323,4.0,7.0,-999,-99.99,,,-99.99,,2013-09-12 09:40:00,
2013-09-12 06:23:00,59.0,-99.9,-100.00,NW,323,4.0,7.0,-999,-99.99,,,-99.99,,2013-09-12 10:23:00,
2013-09-12 06:33:00,59.0,-99.9,-100.00,NW,323,4.0,7.0,-999,-99.99,,,-99.99,,2013-09-12 10:33:00,
2013-09-12 06:40:00,59.0,-99.9,-100.00,NNW,342,4.0,9.0,-999,-99.99,,,-99.99,,2013-09-12 10:40:00,
2013-09-12 07:12:00,59.0,-99.9,-100.00,NNW,342,4.0,9.0,-999,-99.99,,,-99.99,,2013-09-12 11:12:00,
2013-09-12 07:22:00,59.0,-99.9,-100.00,NNW,342,4.0,9.0,-999,-99.99,,,-99.99,,2013-09-12 11:22:00,
2013-09-12 07:33:00,59.0,-99.9,-100.00,NNW,342,4.0,9.0,-999,-99.99,,,-99.99,,2013-09-12 11:33:00,
2013-09-12 07:40:00,59.0,-99.9,-100.00,NNW,347,6.0,12.0,-999,-99.99,,,-99.99,,2013-09-12 11:40:00,
2013-09-12 08:12:00,59.0,-99.9,-100.00,NNW,347,6.0,12.0,-999,-99.99,,,-99.99,,2013-09-12 12:12:00,
2013-09-12 08:22:00,59.0,-99.9,-100.00,NNW,347,6.0,12.0,-999,-99.99,,,-99.99,,2013-09-12 12:22:00,
2013-09-12 08:32:00,59.0,-99.9,-100.00,NNW,347,6.0,12.0,-999,-99.99,,,-99.99,,2013-09-12 12:32:00,
2013-09-12 08:40:00,60.0,-99.9,-100.00,NW,326,8.0,14.0,-999,-99.99,,,-99.99,,2013-09-12 12:40:00,
2013-09-12 09:11:00,60.0,-99.9,-100.00,NW,326,8.0,14.0,-999,-99.99,,,-99.99,,2013-09-12 13:11:00,
2013-09-12 09:22:00,60.0,-99.9,-100.00,NW,326,8.0,14.0,-999,-99.99,,,-99.99,,2013-09-12 13:22:00,
2013-09-12 09:32:00,60.0,-99.9,-100.00,NW,326,8.0,14.0,-999,-99.99,,,-99.99,,2013-09-12 13:32:00,
2013-09-12 09:40:00,61.0,-99.9,-100.00,NNW,347,5.0,13.0,-999,-99.99,,,-99.99,,2013-09-12 13:40:00,
2013-09-12 10:11:00,61.0,-99.9,-100.00,NNW,347,5.0,13.0,-999,-99.99,,,-99.99,,2013-09-12 14:11:00,
2013-09-12 10:22:00,61.0,-99.9,-100.00,NNW,347,5.0,13.0,-999,-99.99,,,-99.99,,2013-09-12 14:22:00,
2013-09-12 10:32:00,61.0,-99.9,-100.00,NNW,347,5.0,13.0,-999,-99.99,,,-99.99,,2013-09-12 14:32:00,
2013-09-12 10:40:00,61.0,-99.9,-100.00,NNW,328,4.0,13.0,-999,-99.99,,,-99.99,,2013-09-12 14:40:00,
2013-09-12 11:11:00,61.0,-99.9,-100.00,NNW,328,4.0,13.0,-999,-99.99,,,-99.99,,2013-09-12 15:11:00,
2013-09-12 11:22:00,61.0,-99.9,-100.00,NNW,328,4.0,13.0,-999,-99.99,,,-99.99,,2013-09-12 15:22:00,
2013-09-12 11:34:00,61.0,-99.9,-100.00,NNW,328,4.0,13.0,-999,-99.99,,,-99.99,,2013-09-12 15:34:00,
2013-09-12 11:40:00,63.0,-99.9,-100.00,NNW,343,8.0,18.0,-999,-99.99,,,-99.99,,2013-09-12 15:40:00,
2013-09-12 12:13:00,63.0,-99.9,-100.00,NNW,343,8.0,18.0,-999,-99.99,,,-99.99,,2013-09-12 16:13:00,
2013-09-12 12:23:00,63.0,-99.9,-100.00,NNW,343,8.0,18.0,-999,-99.99,,,-99.99,,2013-09-12 16:23:00,
2013-09-12 12:33:00,63.0,-99.9,-100.00,NNW,343,8.0,18.0,-999,-99.99,,,-99.99,,2013-09-12 16:33:00,
2013-09-12 12:40:00,62.0,-99.9,-100.00,North,5,10.0,19.0,-999,-99.99,,,-99.99,,2013-09-12 16:40:00,
2013-09-12 13:23:00,62.0,-99.9,-100.00,North,5,10.0,19.0,-999,-99.99,,,-99.99,,2013-09-12 17:23:00,
2013-09-12 13:34:00,62.0,-99.9,-100.00,North,5,10.0,19.0,-999,-99.99,,,-99.99,,2013-09-12 17:34:00,
2013-09-12 13:40:00,61.0,-99.9,-100.00,North,350,8.0,21.0,-999,-99.99,,,-99.99,,2013-09-12 17:40:00,
2013-09-12 14:12:00,61.0,-99.9,-100.00,North,350,8.0,21.0,-999,-99.99,,,-99.99,,2013-09-12 18:12:00,
2013-09-12 14:22:00,61.0,-99.9,-100.00,North,350,8.0,21.0,-999,-99.99,,,-99.99,,2013-09-12 18:22:00,
2013-09-12 14:32:00,61.0,-99.9,-100.00,North,350,8.0,21.0,-999,-99.99,,,-99.99,,2013-09-12 18:32:00,
2013-09-12 14:40:00,60.0,-99.9,-100.00,North,356,15.0,24.0,-999,-99.99,,,-99.99,,2013-09-12 18:40:00,
2013-09-12 15:22:00,60.0,-99.9,-100.00,North,356,15.0,24.0,-999,-99.99,,,-99.99,,2013-09-12 19:22:00,
2013-09-12 15:32:00,60.0,-99.9,-100.00,North,356,15.0,24.0,-999,-99.99,,,-99.99,,2013-09-12 19:32:00,
2013-09-12 15:40:00,59.0,-99.9,-100.00,NNW,332,13.0,22.0,-999,-99.99,,,-99.99,,2013-09-12 19:40:00,
2013-09-12 16:12:00,59.0,-99.9,-100.00,NNW,332,13.0,22.0,-999,-99.99,,,-99.99,,2013-09-12 20:12:00,
2013-09-12 16:22:00,59.0,-99.9,-100.00,NNW,332,13.0,22.0,-999,-99.99,,,-99.99,,2013-09-12 20:22:00,
2013-09-12 16:32:00,59.0,-99.9,-100.00,NNW,332,13.0,22.0,-999,-99.99,,,-99.99,,2013-09-12 20:32:00,
2013-09-12 17:11:00,59.0,-99.9,-100.00,NNW,333,10.0,27.0,-999,-99.99,,,-99.99,,2013-09-12 21:11:00,
2013-09-12 17:54:00,59.0,-99.9,-100.00,NNW,333,10.0,27.0,-999,-99.99,,,-99.99,,2013-09-12 21:54:00,
2013-09-12 18:13:00,57.0,-99.9,-100.00,North,356,8.0,16.0,-999,-99.99,,,-99.99,,2013-09-12 22:13:00,
2013-09-12 18:24:00,57.0,-99.9,-100.00,North,356,8.0,16.0,-999,-99.99,,,-99.99,,2013-09-12 22:24:00,
2013-09-12 18:40:00,55.0,-99.9,-100.00,NNW,343,9.0,17.0,-999,-99.99,,,-99.99,,2013-09-12 22:40:00,
2013-09-12 18:43:00,58.0,-99.9,-100.00,NNW,340,13.0,33.0,-999,-99.99,,,-99.99,,2013-09-12 22:43:00,
2013-09-12 18:54:00,58.0,-99.9,-100.00,NNW,340,13.0,33.0,-999,-99.99,,,-99.99,,2013-09-12 22:54:00,
2013-09-12 19:12:00,55.0,-99.9,-100.00,NNW,343,9.0,17.0,-999,-99.99,,,-99.99,,2013-09-12 23:12:00,
2013-09-12 19:23:00,55.0,-99.9,-100.00,NNW,343,9.0,17.0,-999,-99.99,,,-99.99,,2013-09-12 23:23:00,
2013-09-12 19:34:00,55.0,-99.9,-100.00,NNW,343,9.0,17.0,-999,-99.99,,,-99.99,,2013-09-12 23:34:00,
2013-09-12 20:12:00,54.0,-99.9,-100.00,NNW,339,11.0,25.0,-999,-99.99,,,-99.99,,2013-09-13 00:12:00,
2013-09-12 20:40:00,52.0,-99.9,-100.00,NNW,339,6.0,21.0,-999,-99.99,,,-99.99,,2013-09-13 00:40:00,
2013-09-12 20:42:00,53.0,-99.9,-100.00,NNW,336,15.0,29.0,-999,-99.99,,,-99.99,,2013-09-13 00:42:00,
2013-09-12 21:11:00,52.0,-99.9,-100.00,NNW,339,6.0,21.0,-999,-99.99,,,-99.99,,2013-09-13 01:11:00,
2013-09-12 21:22:00,52.0,-99.9,-100.00,NNW,339,6.0,21.0,-999,-99.99,,,-99.99,,2013-09-13 01:22:00,
2013-09-12 21:32:00,52.0,-99.9,-100.00,NNW,339,6.0,21.0,-999,-99.99,,,-99.99,,2013-09-13 01:32:00,
2013-09-12 21:40:00,52.0,-99.9,-100.00,NNW,343,5.0,16.0,-999,-99.99,,,-99.99,,2013-09-13 01:40:00,
2013-09-12 22:12:00,52.0,-99.9,-100.00,NNW,343,5.0,16.0,-999,-99.99,,,-99.99,,2013-09-13 02:12:00,
2013-09-12 22:22:00,52.0,-99.9,-100.00,NNW,343,5.0,16.0,-999,-99.99,,,-99.99,,2013-09-13 02:22:00,
2013-09-12 22:32:00,52.0,-99.9,-100.00,NNW,343,5.0,16.0,-999,-99.99,,,-99.99,,2013-09-13 02:32:00,
2013-09-12 22:40:00,52.0,-99.9,-100.00,NNW,348,4.0,11.0,-999,-99.99,,,-99.99,,2013-09-13 02:40:00,
2013-09-12 23:12:00,52.0,-99.9,-100.00,NNW,348,4.0,11.0,-999,-99.99,,,-99.99,,2013-09-13 03:12:00,
2013-09-12 23:22:00,52.0,-99.9,-100.00,NNW,348,4.0,11.0,-999,-99.99,,,-99.99,,2013-09-13 03:22:00,
2013-09-12 23:34:00,52.0,-99.9,-100.00,NNW,348,4.0,11.0,-999,-99.99,,,-99.99,,2013-09-13 03:34:00,
2013-09-12 23:40:00,52.0,-99.9,-100.00,NNW,333,5.0,16.0,-999,-99.99,,,-99.99,,2013-09-13 03:40:00,